TimeEDT,TemperatureF,Dew PointF,Humidity,Sea Level PressureIn,VisibilityMPH,Wind Direction,Wind SpeedMPH,Gust SpeedMPH,PrecipitationIn,Events,Conditions,WindDirDegrees,DateUTC
12:15 AM,60.3,59.0,96,30.26,10.0,Calm,Calm,-,N/A,,Overcast,0,2013-09-18 04:15:00
12:35 AM,60.4,58.8,94,30.26,10.0,Calm,Calm,-,N/A,,Overcast,0,2013-09-18 04:35:00
12:55 AM,60.4,59.5,97,30.26,10.0,Calm,Calm,-,N/A,,Overcast,0,2013-09-18 04:55:00
1:15 AM,60.8,59.9,97,30.25,7.0,Calm,Calm,-,N/A,,Overcast,0,2013-09-18 05:15:00
1:35 AM,61.0,59.9,96,30.25,7.0,Calm,Calm,-,N/A,,Overcast,0,2013-09-18 05:35:00
1:55 AM,61.0,59.9,96,30.26,10.0,Calm,Calm,-,N/A,,Overcast,0,2013-09-18 05:55:00
2:15 AM,61.0,60.1,97,30.25,7.0,Calm,Calm,-,N/A,,Overcast,0,2013-09-18 06:15:00
2:35 AM,60.8,59.9,97,30.25,7.0,Calm,Calm,-,N/A,,Overcast,0,2013-09-18 06:35:00
2:55 AM,61.0,60.3,97,30.25,7.0,Calm,Calm,-,N/A,,Overcast,0,2013-09-18 06:55:00
3:15 AM,60.8,60.3,98,30.25,7.0,Calm,Calm,-,N/A,,Overcast,0,2013-09-18 07:15:00
3:35 AM,61.0,60.1,97,30.25,7.0,Calm,Calm,-,N/A,,Overcast,0,2013-09-18 07:35:00
3:55 AM,61.0,60.1,97,30.25,7.0,Calm,Calm,-,N/A,,Overcast,0,2013-09-18 07:55:00
4:15 AM,61.0,59.9,96,30.25,10.0,Calm,Calm,-,N/A,,Overcast,0,2013-09-18 08:15:00
4:35 AM,61.2,60.1,96,30.24,7.0,Calm,Calm,-,N/A,,Overcast,0,2013-09-18 08:35:00
4:55 AM,61.2,60.1,96,30.24,10.0,Calm,Calm,-,N/A,,Overcast,0,2013-09-18 08:55:00
5:15 AM,61.2,60.3,97,30.24,7.0,Calm,Calm,-,N/A,,Overcast,0,2013-09-18 09:15:00
5:35 AM,60.8,59.9,97,30.24,7.0,Calm,Calm,-,N/A,,Mostly Cloudy,0,2013-09-18 09:35:00
5:55 AM,60.3,59.9,99,30.24,5.0,Calm,Calm,-,N/A,,Overcast,0,2013-09-18 09:55:00
6:15 AM,60.4,59.9,98,30.25,7.0,Calm,Calm,-,N/A,,Overcast,0,2013-09-18 10:15:00
6:35 AM,60.8,59.9,97,30.25,7.0,Calm,Calm,-,N/A,,Overcast,0,2013-09-18 10:35:00
6:55 AM,60.4,59.9,98,30.25,5.0,Calm,Calm,-,N/A,,Overcast,0,2013-09-18 10:55:00
7:15 AM,60.3,59.9,99,30.26,5.0,Calm,Calm,-,N/A,,Overcast,0,2013-09-18 11:15:00
7:35 AM,60.4,59.7,97,30.26,5.0,Calm,Calm,-,N/A,,Overcast,0,2013-09-18 11:35:00
7:55 AM,60.8,59.7,96,30.26,7.0,Calm,Calm,-,N/A,,Overcast,0,2013-09-18 11:55:00
8:15 AM,60.8,60.3,98,30.27,5.0,Calm,Calm,-,N/A,,Overcast,0,2013-09-18 12:15:00
8:35 AM,61.2,60.3,97,30.27,5.0,Calm,Calm,-,N/A,,Overcast,0,2013-09-18 12:35:00
8:55 AM,61.7,60.3,95,30.27,7.0,Calm,Calm,-,N/A,,Overcast,0,2013-09-18 12:55:00
9:15 AM,62.1,60.1,93,30.27,10.0,Calm,Calm,-,N/A,,Overcast,0,2013-09-18 13:15:00
9:35 AM,63.1,60.1,90,30.28,10.0,Calm,Calm,-,N/A,,Overcast,0,2013-09-18 13:35:00
9:55 AM,63.9,59.4,85,30.28,10.0,Calm,Calm,-,N/A,,Overcast,0,2013-09-18 13:55:00
10:15 AM,64.4,59.0,83,30.29,10.0,Calm,Calm,-,N/A,,Overcast,0,2013-09-18 14:15:00
10:35 AM,64.8,58.5,80,30.28,10.0,Calm,Calm,-,N/A,,Overcast,0,2013-09-18 14:35:00
10:55 AM,65.3,55.6,71,30.28,10.0,Calm,Calm,-,N/A,,Overcast,0,2013-09-18 14:55:00
11:15 AM,66.4,57.0,72,30.28,10.0,Calm,Calm,-,N/A,,Overcast,0,2013-09-18 15:15:00
11:35 AM,66.6,56.5,70,30.27,10.0,Calm,Calm,-,N/A,,Overcast,0,2013-09-18 15:35:00
11:55 AM,67.1,56.7,69,30.27,10.0,WSW,3.5,-,N/A,,Overcast,240,2013-09-18 15:55:00
12:15 PM,67.8,57.4,69,30.26,10.0,Calm,Calm,-,N/A,,Overcast,0,2013-09-18 16:15:00
12:35 PM,68.5,56.8,66,30.26,10.0,Calm,Calm,-,N/A,,Overcast,0,2013-09-18 16:35:00
12:55 PM,69.4,57.4,65,30.26,10.0,Calm,Calm,-,N/A,,Overcast,0,2013-09-18 16:55:00
1:15 PM,69.1,57.2,66,30.26,10.0,Calm,Calm,-,N/A,,Overcast,0,2013-09-18 17:15:00
1:35 PM,69.3,58.1,68,30.25,10.0,WSW,5.8,-,N/A,,Overcast,240,2013-09-18 17:35:00
1:55 PM,69.8,58.1,66,30.25,10.0,West,4.6,-,N/A,,Overcast,260,2013-09-18 17:55:00
2:15 PM,68.9,57.7,68,30.25,10.0,Calm,Calm,-,N/A,,Overcast,0,2013-09-18 18:15:00
2:35 PM,68.9,58.8,70,30.25,10.0,WSW,4.6,-,N/A,,Overcast,250,2013-09-18 18:35:00
2:55 PM,68.9,59.2,71,30.24,10.0,WNW,4.6,-,N/A,,Overcast,290,2013-09-18 18:55:00
3:15 PM,68.7,58.5,70,30.23,10.0,West,4.6,-,N/A,,Overcast,270,2013-09-18 19:15:00
3:35 PM,69.8,59.7,70,30.22,10.0,WNW,4.6,-,N/A,,Overcast,290,2013-09-18 19:35:00
3:55 PM,69.4,59.4,70,30.21,10.0,West,5.8,-,N/A,,Overcast,270,2013-09-18 19:55:00
4:15 PM,69.1,59.4,71,30.21,10.0,NW,3.5,-,N/A,,Overcast,310,2013-09-18 20:15:00
4:35 PM,69.8,59.9,71,30.21,10.0,West,4.6,-,N/A,,Overcast,280,2013-09-18 20:35:00
4:55 PM,69.8,59.9,71,30.20,10.0,Calm,Calm,-,N/A,,Overcast,0,2013-09-18 20:55:00
5:15 PM,69.8,59.7,70,30.20,10.0,Calm,Calm,-,N/A,,Overcast,0,2013-09-18 21:15:00
5:35 PM,69.8,60.4,72,30.20,10.0,East,3.5,-,N/A,,Overcast,80,2013-09-18 21:35:00
5:55 PM,69.4,60.3,73,30.20,10.0,East,3.5,-,N/A,,Overcast,90,2013-09-18 21:55:00
6:15 PM,69.3,60.6,74,30.20,10.0,Calm,Calm,-,N/A,,Overcast,0,2013-09-18 22:15:00
6:35 PM,68.9,60.8,75,30.20,10.0,Calm,Calm,-,N/A,,Overcast,0,2013-09-18 22:35:00
6:55 PM,68.2,61.3,79,30.20,10.0,Calm,Calm,-,N/A,,Overcast,0,2013-09-18 22:55:00
7:15 PM,67.5,61.9,82,30.19,10.0,Calm,Calm,-,N/A,,Overcast,0,2013-09-18 23:15:00
7:35 PM,66.4,61.5,84,30.19,10.0,Calm,Calm,-,N/A,,Overcast,0,2013-09-18 23:35:00
7:55 PM,65.3,61.9,89,30.19,10.0,Calm,Calm,-,N/A,,Overcast,0,2013-09-18 23:55:00
8:15 PM,64.4,62.6,94,30.19,10.0,Calm,Calm,-,N/A,,Overcast,0,2013-09-19 00:15:00
8:35 PM,63.5,61.9,94,30.20,10.0,Calm,Calm,-,N/A,,Overcast,0,2013-09-19 00:35:00
8:55 PM,63.5,61.7,94,30.21,10.0,Calm,Calm,-,N/A,,Overcast,0,2013-09-19 00:55:00
9:15 PM,62.6,61.2,95,30.22,10.0,Calm,Calm,-,N/A,,Scattered Clouds,0,2013-09-19 01:15:00
9:35 PM,61.2,59.9,96,30.22,10.0,Calm,Calm,-,N/A,,Clear,0,2013-09-19 01:35:00
9:55 PM,60.4,59.5,97,30.22,10.0,Calm,Calm,-,N/A,,Scattered Clouds,0,2013-09-19 01:55:00
10:15 PM,60.1,59.2,97,30.22,10.0,Calm,Calm,-,N/A,,Scattered Clouds,0,2013-09-19 02:15:00
10:35 PM,60.1,59.0,96,30.22,10.0,Calm,Calm,-,N/A,,Clear,0,2013-09-19 02:35:00
10:55 PM,59.7,59.4,99,30.23,5.0,Calm,Calm,-,N/A,,Scattered Clouds,0,2013-09-19 02:55:00
11:15 PM,58.6,57.9,97,30.22,10.0,Calm,Calm,-,N/A,,Scattered Clouds,0,2013-09-19 03:15:00
11:35 PM,58.3,57.7,98,30.22,10.0,Calm,Calm,-,N/A,,Clear,0,2013-09-19 03:35:00
11:55 PM,58.1,57.6,98,30.23,7.0,Calm,Calm,-,N/A,,Clear,0,2013-09-19 03:55:00